Probability
1 0 0 0 0 0 0 1 3 10 27 44 43 27 11 2 0 0 0 0 0 0 0 0 0 0 0 0 0 0 0 0 0 0 0 0 0 0 0 0 0 0 0
3 1 0 0 0 0 0 1 3 7 19 35 39 28 13 3 0 0 0 0 0 0 0 0 0 0 0 0 0 0 0 0 0 0 0 0 0 0 0 0 0 0 0
4 2 0 0 0 0 0 0 1 4 8 15 20 18 10 3 0 0 0 0 0 0 0 0 0 0 0 0 0 0 0 0 0 0 0 0 0 0 0 0 0 0 0
3 1 0 0 0 0 0 0 1 2 3 3 4 4 3 1 0 0 0 0 0 0 0 0 0 0 0 0 0 0 0 0 0 0 0 0 0 0 0 0 0 0 0
2 1 0 0 0 0 0 0 1 3 4 4 2 2 2 1 0 0 1 3 3 3 3 2 1 0 0 0 0 0 0 0 0 0 0 0 0 0 0 0 0 0 0
1 0 0 0 0 1 2 1 2 5 8 8 6 6 7 3 0 2 5 10 14 16 17 16 10 3 1 0 0 0 0 0 0 0 0 0 0 0 0 0 0 0 0
0 0 0 1 3 5 5 3 4 7 10 11 9 9 8 4 1 2 8 17 26 29 30 28 18 6 1 0 0 0 0 0 0 0 0 0 0 0 0 0 0 0 1
0 0 0 3 8 10 6 4 5 6 7 7 7 7 6 4 2 3 7 17 24 25 22 18 12 4 1 0 0 0 0 0 0 0 0 0 0 0 0 0 0 0 1
0 0 1 4 10 11 5 4 9 16 20 18 12 8 6 6 6 7 8 10 11 8 5 3 2 1 0 0 0 0 0 0 0 0 0 0 0 0 0 0 0 0 1
0 1 3 4 5 5 3 4 12 26 37 34 22 12 7 5 7 8 7 5 3 1 0 0 0 0 0 0 0 0 0 0 0 0 0 0 0 0 0 0 0 0 0
1 1 2 3 1 0 0 2 7 18 25 24 19 13 5 2 3 4 4 2 1 0 0 0 0 0 0 0 0 0 0 0 0 0 0 0 0 0 0 0 0 0 0
2 1 1 1 0 0 0 0 1 3 4 5 8 6 2 0 0 1 1 0 0 0 0 0 0 0 0 0 0 0 0 0 0 0 0 0 0 0 0 0 0 0 0
2 1 0 0 0 0 0 0 0 0 0 1 2 1 0 0 0 0 0 0 0 0 0 0 0 0 0 0 0 0 0 0 0 0 0 0 0 0 0 0 0 0 0
1 0 0 0 0 0 0 0 0 0 0 0 0 0 0 0 0 0 0 0 0 0 0 0 0 0 0 0 0 0 0 0 0 0 0 0 0 0 0 0 0 0 0
0 0 0 0 0 0 0 0 0 0 0 0 0 0 0 0 0 0 0 0 0 0 0 0 0 0 0 0 0 0 0 0 0 0 0 0 0 0 0 0 0 0 0
1 1 0 0 0 0 0 0 0 0 0 0 0 0 0 0 0 0 0 0 0 0 0 0 0 0 0 0 0 0 0 0 0 0 0 0 0 0 0 0 0 0 1
6 5 3 1 2 4 4 2 0 0 0 0 0 0 0 0 0 0 0 0 0 0 0 1 1 1 2 2 1 2 4 4 3 1 1 0 0 0 0 0 0 0 1
24 25 21 17 15 15 12 6 1 0 0 0 0 0 0 0 0 0 0 1 1 1 1 2 4 8 12 12 11 11 11 9 5 2 2 1 0 0 0 0 0 0 1
59 59 57 52 43 30 16 6 1 0 0 0 0 0 0 0 0 0 2 6 7 6 9 13 17 22 26 25 20 17 12 7 4 3 2 1 0 0 0 0 0 0 0
88 89 86 78 63 39 16 4 1 0 0 0 0 0 0 0 3 5 11 19 18 15 21 26 27 26 25 20 14 10 6 2 2 2 1 0 0 0 0 0 0 0 0
98 98 94 84 67 45 22 8 2 0 0 0 3 6 5 4 8 14 19 26 26 23 25 27 24 17 11 6 4 1 1 1 1 1 1 0 0 0 0 0 0 0 0
94 93 90 84 70 49 28 13 6 4 2 2 8 13 11 8 11 15 19 21 21 21 22 24 22 14 5 1 0 0 0 0 0 1 2 1 0 0 0 0 0 0 0
86 86 89 88 78 59 37 22 15 12 7 8 13 14 10 7 6 9 11 13 13 15 19 26 25 17 7 1 1 2 1 0 0 0 1 0 0 0 0 0 0 0 0
66 72 80 84 81 69 54 40 27 17 11 12 12 8 5 3 2 4 6 8 10 12 17 18 18 15 7 1 2 3 2 1 1 0 0 0 0 0 0 0 0 0 0
36 43 54 63 67 62 54 45 30 16 9 8 6 4 2 1 0 1 2 4 6 8 8 7 7 6 3 0 1 2 2 2 1 0 0 0 0 0 0 0 0 0 0
15 19 29 42 49 44 37 31 22 12 6 3 1 1 0 0 0 0 0 1 2 2 2 2 2 1 0 0 0 0 1 2 1 0 0 0 0 0 1 1 1 0 0
Wind_Speed
9 13 13 9 8 8 8 8 9 10 10 11 12 12 11 11 10 9 8 7 6 5 4 5 5 6 6 7 8 8 8 7 6 4 2 2 4 4 4 5 7 7 10
9 12 12 9 7 8 9 10 9 10 11 12 12 12 11 11 10 9 7 6 5 4 4 5 6 6 7 8 8 8 7 6 6 5 4 5 7 5 5 5 8 3 8
10 12 12 9 6 8 9 10 10 9 10 12 12 12 12 11 10 9 7 6 5 5 5 5 5 6 6 6 6 6 6 6 4 4 8 7 4 5 2 6 9 8 7
11 10 10 11 7 9 9 9 10 9 9 10 10 10 10 9 8 8 7 6 4 4 3 3 3 4 5 5 5 5 6 6 6 8 9 2 2 8 4 8 9 11 10
11 10 11 9 10 10 9 7 8 10 9 9 9 9 9 8 6 6 6 5 3 2 2 3 3 4 5 6 6 6 6 7 9 13 8 3 2 8 6 9 7 7 9
13 11 12 9 11 12 11 9 8 9 9 8 7 8 10 9 8 7 6 7 7 5 5 6 6 6 7 8 8 7 7 7 11 9 6 6 5 10 8 9 9 6 6
13 12 13 9 10 12 12 9 9 8 8 8 8 9 9 7 6 4 4 6 8 8 10 12 12 12 13 13 12 12 11 9 6 6 5 5 10 11 9 9 8 7 7
13 13 14 12 13 14 12 10 9 8 7 8 8 9 8 6 3 3 5 7 10 12 14 16 16 15 14 13 11 11 11 10 5 5 5 5 11 11 11 12 11 9 8
11 11 12 14 14 14 12 10 10 9 8 8 7 7 7 6 6 6 8 11 12 14 14 14 14 13 12 10 9 8 6 5 6 2 3 5 10 11 11 10 11 11 10
11 10 11 10 11 13 13 12 12 11 11 10 8 7 7 7 8 8 9 12 12 12 12 12 11 10 9 8 8 6 5 6 6 6 5 8 10 11 11 11 11 11 11
9 9 10 11 8 9 11 11 12 11 10 9 8 7 3 3 6 6 10 11 12 12 12 11 9 7 6 7 6 2 2 4 6 5 5 10 11 12 12 11 11 11 11
11 10 10 9 8 8 7 7 6 6 6 5 6 5 3 4 3 6 10 10 10 10 11 9 7 6 3 3 4 4 3 4 3 2 3 6 10 11 11 11 11 10 11
11 9 9 8 5 6 5 4 4 4 4 5 6 5 4 3 4 4 5 6 6 6 6 6 5 3 4 4 4 5 5 6 5 4 3 4 8 10 10 9 10 10 10
10 9 8 8 6 4 4 4 3 3 2 2 4 1 3 2 3 4 3 4 4 4 3 2 2 4 5 5 6 6 7 6 6 6 3 0 6 9 9 8 7 8 10
10 9 8 7 7 5 4 3 3 3 3 4 3 4 2 3 4 4 3 1 2 3 2 2 3 4 5 6 6 7 8 8 8 7 5 3 4 7 9 8 8 8 9
11 10 9 8 7 6 5 4 3 4 4 4 4 5 3 3 3 3 3 1 1 1 3 4 4 5 6 6 8 9 10 11 9 9 10 7 8 10 9 9 9 10 10
9 8 8 7 7 6 6 6 5 5 4 4 4 4 3 3 3 1 2 1 1 2 3 4 6 7 7 8 10 10 10 11 12 12 12 11 9 11 13 10 9 10 11
7 8 8 6 7 6 6 5 4 4 4 4 4 4 4 3 2 1 1 1 2 5 5 5 7 8 9 10 11 11 11 11 14 13 13 13 12 10 9 12 9 9 10
7 7 8 7 6 6 5 4 5 3 3 3 3 3 4 3 3 3 2 2 5 6 6 7 7 8 10 11 12 12 13 13 13 14 14 15 15 12 12 7 11 12 12
7 7 10 9 9 6 3 4 4 4 3 3 3 3 3 3 3 4 4 2 6 6 6 6 7 8 9 10 12 13 13 14 13 13 13 14 13 14 14 13 9 10 15
6 9 10 10 8 5 2 4 4 3 3 3 3 3 2 1 2 3 5 3 5 6 6 8 8 10 10 8 11 13 13 15 15 12 12 12 12 13 13 14 13 11 8
5 7 9 9 8 5 1 1 1 2 2 2 2 2 2 4 5 4 5 6 6 6 8 7 8 10 11 10 11 14 16 16 13 13 11 11 13 13 16 17 15 12 12
7 7 7 9 8 6 3 2 4 3 3 2 1 2 4 5 5 6 7 8 8 10 9 10 12 13 13 13 13 13 15 17 15 14 16 15 15 14 14 14 15 15 15
10 10 12 12 11 9 6 6 5 4 4 5 4 4 5 5 6 7 8 9 10 11 12 13 14 13 15 15 14 12 14 15 16 17 15 15 17 15 16 14 15 15 15
13 13 13 14 14 13 11 9 7 7 6 5 6 6 8 7 8 9 10 10 11 12 14 14 15 16 14 16 15 15 15 14 17 17 19 17 15 15 15 15 13 13 13
14 13 13 14 14 13 12 12 11 10 9 8 9 9 9 9 10 12 13 12 13 13 14 14 15 17 16 17 15 15 15 16 16 16 18 18 16 14 14 11 11 12 12
Wind_Direction
138 118 111 120 128 129 124 117 108 103 102 110 119 120 123 125 126 127 130 130 124 112 85 64 57 44 36 47 52 51 48 45 43 40 35 155 156 154 159 167 207 189 134
136 126 122 119 129 136 131 125 119 116 116 117 118 118 119 121 119 119 120 118 110 96 72 58 60 65 59 57 56 53 51 46 33 12 323 242 179 174 204 220 254 13 150
139 137 134 112 125 137 133 127 124 124 124 123 122 123 122 120 118 114 111 111 107 101 91 81 78 79 70 59 49 38 29 21 11 330 277 264 143 112 252 255 250 247 198
144 143 119 114 124 127 128 127 128 128 125 123 122 122 116 112 111 113 112 114 117 118 116 101 78 59 48 37 31 21 6 350 328 290 258 307 342 82 346 317 271 245 218
138 124 111 129 128 120 116 122 129 129 127 126 125 120 108 97 85 85 93 89 79 60 43 33 22 19 8 360 357 354 348 330 306 277 292 327 318 79 354 325 318 260 233
129 123 122 139 132 126 125 130 136 133 129 127 123 113 102 93 78 62 52 49 49 37 23 24 20 17 10 4 357 353 349 332 299 305 339 324 16 45 359 334 330 319 294
127 126 118 119 127 122 121 131 130 124 121 120 119 109 104 102 101 94 65 52 57 53 51 50 47 46 44 42 37 31 25 356 320 335 341 354 28 10 352 343 333 320 296
131 123 115 108 108 112 118 123 117 113 115 119 121 120 120 123 119 88 62 61 68 69 68 66 68 65 56 50 40 30 19 351 336 348 345 22 33 2 358 360 354 345 323
130 130 128 121 111 108 110 112 110 110 112 116 119 122 124 127 121 99 79 77 76 78 78 80 82 76 71 68 63 51 28 324 308 333 341 33 14 354 350 348 346 345 343
134 125 120 112 124 132 121 110 104 96 92 94 99 105 111 124 111 97 100 95 92 91 94 99 102 100 96 87 72 50 0 302 6 4 17 32 1 345 344 344 341 335 329
127 125 118 114 111 107 111 122 117 108 102 119 109 105 146 120 105 105 85 97 97 96 100 104 109 120 141 122 90 51 342 8 30 14 20 7 345 339 333 331 331 327 323
135 125 116 116 128 118 112 119 116 116 115 108 100 111 111 93 80 92 96 90 98 108 116 116 138 162 219 80 128 205 18 3 6 22 52 6 337 331 324 319 319 320 319
130 123 119 112 102 105 111 104 96 97 109 124 109 112 108 128 134 129 128 132 130 154 138 142 171 59 42 30 352 3 1 343 347 344 43 27 326 317 311 308 310 313 316
142 135 126 127 127 107 91 101 106 96 94 74 95 98 126 120 124 113 123 117 135 110 80 70 63 44 5 0 346 340 336 338 335 333 336 170 308 307 300 295 299 309 317
152 150 138 138 133 130 111 94 86 82 83 96 92 82 78 127 124 127 110 79 85 88 107 33 9 350 321 319 317 316 315 312 306 310 300 225 247 275 286 283 283 291 300
161 159 147 153 146 142 127 113 106 104 103 98 85 82 67 90 103 136 146 122 73 17 8 318 323 307 303 308 301 302 299 301 297 291 295 289 230 222 252 270 279 284 287
162 155 155 154 145 141 127 118 117 116 121 104 95 97 92 100 101 130 114 176 40 293 272 277 299 290 287 293 292 293 290 291 294 294 291 290 283 227 216 234 262 280 287
163 157 162 154 142 122 99 101 103 101 115 113 117 119 115 110 141 212 209 236 282 279 281 288 283 292 293 290 292 293 293 288 281 281 281 280 285 281 245 211 224 258 269
170 167 149 137 126 106 104 111 108 116 120 138 148 149 148 171 200 244 260 284 271 281 287 291 299 299 297 295 292 287 286 288 289 284 283 283 282 276 276 233 211 233 242
163 144 130 127 119 120 145 150 141 132 149 155 148 140 166 181 216 269 260 270 289 290 294 302 303 291 290 289 292 292 286 284 282 281 284 282 279 275 270 274 266 247 226
151 140 132 125 124 131 217 212 171 158 159 158 144 137 164 278 308 305 307 315 305 309 316 307 306 297 290 300 294 290 287 283 278 273 269 275 282 284 279 276 271 275 265
126 123 124 119 118 123 208 293 76 112 155 121 119 95 7 359 345 332 348 324 333 318 297 302 304 301 301 297 296 296 292 286 278 279 283 274 274 279 279 276 271 275 279
95 101 100 97 98 93 118 132 124 141 172 164 59 28 10 355 352 350 344 337 331 313 310 314 299 293 299 299 288 288 291 290 297 289 288 282 277 272 270 269 271 275 275
79 79 80 82 81 75 71 62 55 33 31 27 358 7 342 341 342 340 338 331 320 311 306 295 301 303 292 288 287 278 274 282 288 290 281 275 275 273 272 272 273 272 271
80 80 77 74 68 62 57 54 43 37 26 17 355 359 332 331 328 327 326 321 314 304 303 303 297 290 289 286 287 287 283 277 272 274 281 280 273 270 269 269 272 275 276
70 70 69 66 63 59 55 52 45 39 22 5 348 339 329 322 320 319 321 316 308 303 303 299 296 290 286 286 285 282 280 277 276 275 276 276 276 275 276 276 277 280 279